Location: ??????
(55.2000°N, 38.3000°E)
Time: 02:13:05
(UTC+00:00)

CENTAUR R/B - Pass Details

Date: 15 November 2025
Orbit: 633 x 1547 km, 63.4° (Epoch: 12 December)

Event Time Altitude Azimuth Distance (km) Brightness Sun altitude
Exits shadow 03:39:58 12° 304° (NW) 3,161 4.6 -11.2°
Maximum altitude 03:47:06 42° 239° (WSW) 1,943 3.8 -10.2°
Drops below altitude 10° 03:55:38 10° 173° (S) 3,703 5.9 -9.0°
Sets 03:58:55 0° 167° (SSE) 4,703 6.5 -8.6°
